QPF
0.01 0.00 0.01 0.01 0.01 0.02 0.06 0.08 0.05 0.05 0.04 0.03 0.02 0.02 0.01 0.00 0.00 0.00 0.00 0.00 0.00 0.00
0.03 0.02 0.02 0.01 0.02 0.06 0.05 0.03 0.04 0.02 0.01 0.01 0.00 0.00 0.00 0.00 0.00 0.00 0.00 0.00 0.00 0.00
0.03 0.03 0.02 0.03 0.02 0.02 0.02 0.01 0.00 0.01 0.03 0.02 0.01 0.00 0.00 0.00 0.00 0.00 0.00 0.00 0.00 0.00
0.01 0.00 0.00 0.01 0.01 0.01 0.01 0.00 0.00 0.02 0.05 0.09 0.08 0.06 0.05 0.04 0.05 0.02 0.01 0.01 0.01 0.00
0.00 0.00 0.00 0.00 0.00 0.00 0.00 0.00 0.00 0.00 0.00 0.01 0.01 0.02 0.03 0.03 0.02 0.02 0.04 0.07 0.06 0.04
0.00 0.00 0.00 0.00 0.00 0.00 0.00 0.00 0.00 0.00 0.00 0.00 0.00 0.00 0.00 0.00 0.00 0.00 0.00 0.00 0.00 0.00
0.00 0.00 0.00 0.00 0.00 0.00 0.00 0.00 0.00 0.00 0.00 0.00 0.00 0.00 0.00 0.00 0.00 0.00 0.00 0.00 0.00 0.00
0.00 0.00 0.00 0.00 0.00 0.00 0.00 0.00 0.00 0.00 0.00 0.00 0.00 0.00 0.00 0.00 0.00 0.00 0.00 0.00 0.00 0.00
0.00 0.00 0.00 0.00 0.00 0.00 0.00 0.00 0.00 0.00 0.00 0.00 0.00 0.00 0.00 0.00 0.00 0.00 0.00 0.00 0.00 0.00
0.00 0.00 0.00 0.00 0.00 0.00 0.00 0.00 0.00 0.00 0.00 0.00 0.00 0.00 0.00 0.00 0.00 0.00 0.00 0.00 0.00 0.00
0.00 0.00 0.00 0.00 0.00 0.00 0.00 0.00 0.00 0.00 0.00 0.00 0.00 0.00 0.00 0.00 0.00 0.00 0.00 0.00 0.00 0.00
0.00 0.00 0.00 0.00 0.00 0.00 0.00 0.00 0.00 0.00 0.00 0.00 0.00 0.00 0.00 0.00 0.00 0.00 0.00 0.00 0.00 0.00
0.00 0.00 0.00 0.00 0.00 0.00 0.00 0.00 0.00 0.00 0.00 0.00 0.00 0.00 0.00 0.00 0.00 0.00 0.00 0.00 0.00 0.00
0.00 0.00 0.00 0.00 0.00 0.00 0.00 0.00 0.00 0.00 0.00 0.00 0.00 0.00 0.00 0.00 0.00 0.00 0.00 0.00 0.00 0.00
MSLP
1007.87 1008.29 1008.57 1008.81 1008.93 1009.19 1009.38 1009.24 1009.06 1009.15 1009.54 1009.53 1009.49 1009.99 1010.51 1010.43 1010.53 1010.86 1011.13 1011.58 1012.19 1012.52
1009.06 1009.57 1009.51 1009.47 1009.45 1009.77 1009.99 1009.53 1009.36 1009.24 1009.44 1009.45 1009.56 1009.67 1010.04 1010.14 1010.51 1010.70 1010.95 1011.16 1011.46 1011.92
1010.33 1010.79 1010.56 1010.30 1010.40 1010.14 1010.16 1009.96 1009.77 1009.86 1009.76 1009.76 1010.07 1010.13 1010.13 1010.20 1010.33 1010.49 1010.68 1010.74 1010.95 1011.13
1010.82 1010.62 1010.56 1010.58 1010.66 1010.41 1010.26 1010.29 1010.32 1010.23 1010.24 1010.45 1010.23 1010.23 1010.11 1010.50 1010.53 1010.72 1010.47 1010.61 1010.78 1010.75
1010.88 1010.95 1010.88 1011.05 1011.12 1010.92 1010.76 1010.68 1010.81 1010.65 1010.42 1010.33 1010.69 1010.41 1010.81 1010.45 1010.56 1010.70 1010.73 1010.53 1010.76 1010.65
1011.75 1011.95 1011.26 1011.20 1011.23 1011.08 1011.16 1011.18 1011.26 1011.29 1011.05 1010.92 1010.74 1010.58 1010.43 1010.54 1010.31 1010.35 1010.33 1010.23 1010.61 1010.74
1012.18 1012.34 1012.02 1012.02 1011.79 1011.99 1011.69 1011.64 1011.59 1011.54 1011.35 1011.23 1010.99 1010.85 1010.68 1010.44 1010.41 1010.54 1010.51 1010.44 1010.28 1010.21
1012.81 1012.84 1012.81 1012.76 1012.70 1012.69 1012.63 1012.49 1012.03 1011.58 1011.32 1011.13 1011.01 1010.91 1010.77 1010.64 1010.66 1010.77 1010.68 1010.50 1010.34 1010.17
1013.14 1013.28 1013.17 1013.22 1013.17 1013.15 1013.10 1012.74 1012.66 1012.47 1012.24 1011.72 1011.66 1011.29 1011.00 1010.92 1010.81 1010.86 1010.48 1010.30 1010.24 1010.07
1013.41 1013.60 1013.84 1013.80 1013.88 1013.87 1013.82 1013.56 1013.11 1012.74 1012.63 1012.62 1012.04 1011.48 1011.14 1010.92 1010.67 1010.63 1010.65 1010.46 1010.09 1009.65
1014.26 1014.41 1014.40 1014.23 1014.17 1013.94 1013.76 1013.72 1013.62 1013.06 1012.49 1011.96 1011.44 1010.95 1010.69 1010.72 1010.66 1010.38 1010.09 1009.76 1009.40 1009.02
1014.84 1014.85 1014.71 1014.47 1014.33 1014.17 1013.69 1013.25 1012.70 1012.35 1012.00 1011.70 1011.19 1010.82 1010.61 1010.38 1010.03 1009.67 1009.20 1008.95 1008.73 1008.43
1015.61 1015.47 1015.13 1014.87 1014.50 1014.12 1013.68 1013.12 1012.81 1012.40 1011.92 1011.45 1011.00 1010.56 1010.24 1009.96 1009.66 1009.18 1008.80 1008.46 1008.09 1007.80
1015.62 1015.40 1014.95 1014.70 1014.32 1013.90 1013.53 1013.11 1012.80 1012.38 1011.79 1011.20 1010.62 1010.04 1009.71 1009.45 1009.20 1008.76 1008.29 1007.84 1007.47 1007.13
Thickness
5728 5725 5722 5721 5721 5718 5714 5713 5716 5717 5709 5709 5707 5700 5694 5694 5692 5686 5681 5677 5669 5663
5707 5705 5707 5708 5709 5704 5700 5704 5702 5702 5697 5695 5693 5692 5687 5683 5677 5673 5669 5665 5661 5655
5686 5683 5684 5688 5686 5688 5687 5688 5687 5683 5684 5681 5675 5674 5671 5668 5664 5659 5656 5654 5650 5646
5676 5677 5675 5674 5672 5672 5674 5673 5671 5672 5669 5665 5664 5661 5659 5652 5649 5645 5645 5641 5639 5637
5665 5665 5664 5661 5659 5659 5658 5657 5653 5653 5653 5653 5646 5645 5637 5640 5636 5634 5631 5631 5626 5624
5647 5643 5650 5648 5645 5645 5642 5639 5635 5632 5631 5629 5627 5625 5624 5620 5621 5619 5617 5616 5608 5604
5636 5632 5633 5631 5630 5625 5626 5622 5619 5615 5614 5612 5610 5607 5605 5605 5603 5598 5595 5592 5589 5588
5622 5620 5618 5616 5613 5609 5605 5602 5603 5604 5601 5598 5594 5590 5586 5584 5581 5578 5575 5573 5571 5568
5608 5605 5603 5599 5595 5592 5589 5588 5583 5579 5577 5578 5572 5569 5567 5563 5560 5556 5557 5555 5552 5549
5596 5590 5584 5580 5575 5571 5566 5563 5563 5561 5555 5547 5547 5547 5545 5542 5541 5538 5534 5534 5534 5535
5575 5570 5565 5562 5556 5554 5549 5542 5536 5535 5534 5533 5532 5531 5528 5523 5520 5520 5520 5520 5521 5521
5560 5554 5550 5545 5539 5534 5533 5530 5528 5524 5520 5516 5515 5511 5508 5507 5508 5511 5512 5511 5510 5509
5539 5534 5531 5525 5522 5519 5518 5517 5511 5508 5504 5502 5500 5497 5495 5495 5496 5498 5498 5498 5499 5498
5525 5521 5519 5515 5512 5510 5506 5501 5496 5492 5488 5486 5485 5484 5482 5481 5481 5483 5485 5487 5487 5486